User: anonymous   Login
Location: Arleux
(50.3632°N, 2.8721°E)
Time: 12:13:14
(UTC+00:00)
Language:

NOSS 3-2 (C) - Orbit

View from above orbital plane
View from above orbital plane
View from above satellite
View from above satellite

Ground track
Ground track

The orbit data is extracted from the following two-line orbital elements,

1 28097U 03054C   20054.82269530 0.00000000  00000-0  00000-0 0    07
2 28097  63.4186 331.1972 0391464 358.7964   1.2036 13.40763117    06
Epoch (UTC): 23 February 2020 19:44:40
Eccentricity: 0.0391464
inclination: 63.4186°
perigee height: 813 km
apogee height: 1399 km
right ascension of ascending node: 331.1972°
argument of perigee: 358.7964°
revolutions per day: 13.40763117
mean anomaly at epoch: 1.2036°
orbit number at epoch: 0

The dashed part of the orbit path shows where the satellite is in the earth's shadow,  

DLR